Date,TemperatureHighF,TemperatureAvgF,TemperatureLowF,DewpointHighF,DewpointAvgF,DewpointLowF,HumidityHigh,HumidityAvg,HumidityLow,PressureMaxIn,PressureMinIn,WindSpeedMaxMPH,WindSpeedAvgMPH,GustSpeedMaxMPH,PrecipitationSumIn
2013-3-1,27.1,25.3,24.4,24.0,21.9,20.0,91,86,83,30.26,30.11,5,3,10,0.01
2013-3-2,27.7,20.0,7.2,21.0,14.7,5.0,90,80,66,30.27,30.22,8,2,11,0.00
2013-3-3,31.6,16.7,3.3,17.0,9.9,1.0,92,76,48,30.22,30.15,5,1,8,0.00
2013-3-4,33.0,25.1,12.4,27.0,20.5,10.0,90,83,70,30.18,30.03,9,3,11,0.00
2013-3-5,33.7,30.7,26.3,32.0,28.8,25.0,96,92,83,30.06,29.84,7,2,9,0.03
2013-3-6,33.7,29.5,26.5,29.0,26.5,25.0,93,88,82,30.35,30.07,7,3,11,0.03
2013-3-7,35.6,28.0,14.8,26.0,23.1,13.0,94,82,65,30.46,30.34,6,1,8,0.03
2013-3-8,38.3,25.6,7.9,29.0,20.4,5.0,94,81,68,30.52,30.34,7,2,13,0.12
2013-3-9,43.6,37.4,31.4,37.0,31.9,26.0,91,80,75,30.34,29.82,13,6,16,0.07
2013-3-10,45.8,42.4,39.2,46.0,41.4,37.0,99,96,76,29.84,29.61,9,3,14,0.08
2013-3-11,40.6,35.2,32.1,40.0,34.3,30.0,99,96,90,29.82,29.57,6,1,13,0.17
2013-3-12,35.5,30.3,25.7,31.0,26.2,21.0,94,85,72,30.07,29.82,10,2,17,0.01
2013-3-13,32.4,27.0,22.0,22.0,18.0,14.0,86,70,49,30.37,30.07,16,4,16,0.00
2013-3-14,34.3,29.0,21.7,31.0,24.8,18.0,94,84,65,30.37,30.11,6,2,10,0.00
2013-3-15,38.3,33.8,29.5,36.0,32.2,28.0,97,94,83,30.12,29.78,5,1,9,0.05
2013-3-16,32.8,31.2,29.2,32.0,28.6,23.0,97,90,77,30.17,29.77,5,2,10,0.05
2013-3-17,35.3,30.1,24.2,27.0,23.6,18.0,85,77,67,30.25,30.02,8,4,11,0.00
2013-3-18,34.5,30.0,20.5,33.0,26.6,14.0,94,87,72,30.01,29.64,15,4,27,0.01
2013-3-19,30.8,22.7,15.5,18.0,14.1,9.0,80,70,57,30.14,29.83,23,7,25,0.01
2013-3-20,23.8,18.4,11.9,14.0,9.6,4.0,82,69,62,30.17,30.08,12,4,20,0.00
2013-3-21,30.4,21.6,12.3,17.0,13.0,7.0,82,70,57,30.12,30.07,7,2,12,0.01
2013-3-22,37.3,26.6,16.1,25.0,18.1,13.0,91,72,48,30.12,30.06,6,1,9,0.00
2013-3-23,40.8,32.5,23.6,28.0,24.5,22.0,94,74,51,30.17,30.06,5,1,9,0.00
2013-3-24,36.7,32.8,30.6,30.0,28.1,26.0,94,83,71,30.09,29.72,9,4,14,0.00
2013-3-25,35.4,31.8,28.0,30.0,27.3,24.0,88,83,77,30.13,29.78,7,3,13,0.00
2013-3-26,42.0,35.3,32.2,30.0,28.1,23.0,86,76,54,30.29,30.13,6,1,11,0.00
2013-3-27,41.5,35.5,27.5,30.0,26.6,24.0,90,71,53,30.36,30.29,5,1,11,0.00
2013-3-28,47.6,36.0,25.6,31.0,26.9,24.0,93,72,45,30.39,30.31,6,1,9,0.00
2013-3-29,53.2,41.2,29.3,34.0,29.2,26.0,91,66,36,30.35,30.25,5,1,8,0.00
2013-3-30,57.0,44.0,30.0,44.0,35.1,26.0,88,72,51,30.27,29.86,8,2,13,0.00
2013-3-31,55.4,44.6,35.5,44.0,37.5,29.0,96,78,44,29.91,29.73,13,3,18,0.00